Location: Bailen
(14.1842°N, 120.7958°E)
Time: 05:04:53
(UTC+00:00)

MAQSAT/ARIANE V - Visible Passes

Search period start: 19 April 2026 00:00
Search period end: 29 April 2026 00:00
Orbit: 250 x 31420 km, 7.0° (Epoch: 18 April)

Date Brightness Start Highest point End Pass type
(mag) Time Alt. Az. Time Alt. Az. Time Alt. Az.
19 Apr 3.7 11:05:21 10° W 11:47:26 56° S 11:49:40 40° SE visible
21 Apr 5.0 19:06:54 37° S 19:07:50 37° SSE 03:08:00 10° E visible
22 Apr 4.7 12:54:43 10° W 13:02:22 27° WSW 13:02:22 27° WSW visible
24 Apr 4.8 02:35:30 10° WSW 10:40:30 63° S 10:47:26 11° ESE visible
24 Apr 5.3 20:19:02 22° SW 20:28:19 47° SSE 04:39:02 10° E visible
26 Apr 5.8 18:03:44 23° SE 18:03:44 23° SE 18:16:16 10° ESE visible
26 Apr 9.9 22:42:00 10° E 00:29:34 16° E 01:33:22 10° E visible
27 Apr 3.5 11:32:11 10° W 11:57:37 51° SSW 11:58:53 45° SSE visible
